Regional Weather Roundup
Issued by NWS

Home | Current Version | Previous Version | Text Only | Print | Product List | Glossary Off
Versions: 1 2 3 4 5 6 7 8 9 10 11 12 13 14 15 16 17 18 19 20 21 22 23 24 25 26 27

000
ASUS45 KCYS 232010
RWRWY

WYOMING REGIONAL WEATHER ROUNDUP
NATIONAL WEATHER SERVICE CHEYENNE WY
200 PM MDT WED APR 23 2014

NOTE:  "FAIR" INDICATES FEW OR NO CLOUDS BELOW 12,000 FEET
WITH NO SIGNIFICANT WEATHER AND/OR OBSTRUCTIONS TO VISIBILITY.

WYZ001-232100-
YELLOWSTONE NATIONAL PARK

CITY           SKY/WX    TMP DP  RH WIND       PRES   REMARKS
LK YELLOWSTONE   N/A     34   9  35 W9G22     29.85R WCI  27
W YELLOWSTONE  NOT AVBL

$$
WYZ002>013-054>058-071-098>099-232100-
NORTHERN WYOMING

CITY           SKY/WX    TMP DP  RH WIND       PRES   REMARKS
JACKSON        PTSUNNY   34  19  55 W7G17     29.93R WCI  28
CODY           MOSUNNY   46  18  31 W21G37    29.76R
GREYBULL       MOSUNNY   54  19  25 W7G20     29.72R
WORLAND        PTSUNNY   51  27  39 VRB5      29.74R
SHERIDAN         N/A     43   9  24 SW32G40     N/A
BUFFALO        MOSUNNY   47  25  42 N24G36    29.71S
GILLETTE       CLOUDY    44  35  70 NW20      29.72R
HULETT         CLOUDY    45  36  70 NW13G20   29.71
NEWCASTLE      FAIR      50  36  57 NW24G31   29.70

$$
WYZ014>020-022>026-101>103-232100-
CENTRAL WYOMING

CITY           SKY/WX    TMP DP  RH WIND       PRES   REMARKS
BIG PINEY      PTSUNNY   40  10  29 N22G31    29.93R WCI  30
PINEDALE       PTCLDY    36  12  38 NW17G31   29.92R WCI  25
DUBOIS         MOCLDY    37   7  28 W30G37    29.83R WCI  25
LANDER         MOSUNNY   50  12  21 W16G31    29.78R
RIVERTON       PTSUNNY   49   7  18 W14G29    29.77R
CASPER         SUNNY     54  10  17 W28G41    29.74R
DOUGLAS        SUNNY     60  15  17 W35G40    29.69R

$$
WYZ021-027>030-104>119-232100-
SOUTHERN WYOMING

CITY           SKY/WX    TMP DP  RH WIND       PRES   REMARKS
EVANSTON       MOSUNNY   37  15  40 W17G23    30.00S WCI  27
KEMMERER       MOCLDY    37  10  32 W20G33    29.96R WCI  27
FORT BRIDGER   MOCLDY    40  21  46 W29       30.01R WCI  29
ROCK SPRINGS   MOSUNNY   45   8  22 W25G38    29.92R
DIXON          CLOUDY    45  17  33 SW12G23   29.92S
RAWLINS        PTSUNNY   48   0  13 W25G38    29.84R
SARATOGA       CLOUDY    41  18  38 SW15G25   29.88S
LARAMIE        MOSUNNY   49  21  33 W24G36    29.76S
CHEYENNE       MOSUNNY   57  25  29 W25G41    29.68S
TORRINGTON     SUNNY     61  20  20 W30G44    29.68R
PINE BLUFFS    MOCLDY    63  25  23 NW29G37   29.65S

$$



USA.gov is the U.S. government's official web portal to all federal, state and local government web resources and services.